Regional Weather Roundup
Issued by NWS

Home | Current Version | Previous Version | Graphics & Text | Print | Product List | Glossary On
Versions: 1 2 3 4 5 6 7 8 9 10 11 12 13 14 15 16 17 18 19 20 21 22 23 24 25 26 27 28 29 30 31 32 33 34 35 36 37 38 39 40 41 42 43 44 45 46 47 48 49 50
000
ASUS45 KCYS 021810
RWRWY

WYOMING REGIONAL WEATHER ROUNDUP
NATIONAL WEATHER SERVICE CHEYENNE WY
1200 PM MDT WED SEP 02 2015

NOTE:  "FAIR" INDICATES FEW OR NO CLOUDS BELOW 12,000 FEET
WITH NO SIGNIFICANT WEATHER AND/OR OBSTRUCTIONS TO VISIBILITY.

WYZ001-021900-
YELLOWSTONE NATIONAL PARK

CITY           SKY/WX    TMP DP  RH WIND       PRES   REMARKS
LK YELLOWSTONE   N/A     69  32  25 W10G18    30.16S
6HR MIN TEMP:  37; 6HR MAX TEMP:  70;

W YELLOWSTONE  NOT AVBL

$$
WYZ002>013-054>058-071-098>099-021900-
NORTHERN WYOMING

CITY           SKY/WX    TMP DP  RH WIND       PRES   REMARKS
JACKSON        FAIR      77  36  22 S18G29    30.07F
CODY           FAIR      84  34  16 CALM      29.91F
GREYBULL       FAIR      89  41  18 SE14      29.83F
6HR MIN TEMP:  63; 6HR MAX TEMP:  89;

WORLAND        FAIR      89  41  18 SW15G25   29.87F
6HR MIN TEMP:  64; 6HR MAX TEMP:  90;

SHERIDAN       FAIR      95  31  10 SW10      29.83S
6HR MIN TEMP:  56; 6HR MAX TEMP:  95;

BUFFALO        FAIR      89  35  14 SE6       29.94F
6HR MIN TEMP:  70; 6HR MAX TEMP:  90;

GILLETTE       FAIR      91  40  16 SW16      29.89F
6HR MIN TEMP:  71; 6HR MAX TEMP:  91;

HULETT         FAIR      90  36  14 S5        29.92S
NEWCASTLE      FAIR      84  37  18 MISG      29.95S

$$
WYZ014>020-022>026-101>103-021900-
CENTRAL WYOMING

CITY           SKY/WX    TMP DP  RH WIND       PRES   REMARKS
BIG PINEY      FAIR      79  28  15 W14G24    30.15F
6HR MIN TEMP:  39; 6HR MAX TEMP:  80;

PINEDALE       FAIR      73  34  23 W5        30.16F
DUBOIS         FAIR      72  32  23 W14G25    30.13S
LANDER         FAIR      87  32  14 SW12G21   30.00F
6HR MIN TEMP:  72; 6HR MAX TEMP:  88;

RIVERTON       FAIR      85  31  14 SW8G17    30.01F
6HR MIN TEMP:  57; 6HR MAX TEMP:  86;

CASPER         FAIR      86  35  16 SW20G31   30.03F
6HR MIN TEMP:  66; 6HR MAX TEMP:  86;

DOUGLAS        FAIR      91  34  13 W20G25    30.01S
6HR MIN TEMP:  60; 6HR MAX TEMP:  91;


$$
WYZ021-027>030-104>119-021900-
SOUTHERN WYOMING

CITY           SKY/WX    TMP DP  RH WIND       PRES   REMARKS
EVANSTON       FAIR      72  38  29 SW18G30   30.19F
6HR MIN TEMP:  54; 6HR MAX TEMP:  77;

KEMMERER       FAIR      75  32  20 SW22G29   30.19F
FORT BRIDGER   CLEAR     79  36  21 SW20G30   30.21F
ROCK SPRINGS   FAIR      75  38  26 W16       30.18F
6HR MIN TEMP:  54; 6HR MAX TEMP:  76;

DIXON          FAIR      78  41  26 SW12G22   30.23F
RAWLINS        FAIR      79  37  22 SW16G25   30.20F
6HR MIN TEMP:  55; 6HR MAX TEMP:  79;

SARATOGA       MOCLDY    77  41  27 S5        30.23F
LARAMIE        FAIR      77  39  25 W10G20    30.22F
6HR MIN TEMP:  48; 6HR MAX TEMP:  77;

CHEYENNE       FAIR      83  37  19 NW10G21   30.13F
6HR MIN TEMP:  65; 6HR MAX TEMP:  85;

TORRINGTON     FAIR      89  44  20 W7        29.96F
6HR MIN TEMP:  54; 6HR MAX TEMP:  89;

PINE BLUFFS    FAIR      86  36  16 W7        30.06F

$$



USA.gov is the U.S. government's official web portal to all federal, state and local government web resources and services.